Madawaska, ME

5:01 AM EST on February 12, 2016 (GMT -0500)
Northern Aroostook Regional

Weather History for KFVE - June, 2014

Change the Weather History Date:

Sunday, June 15, 2014

  Actual Average Record
Temperature  
Mean Temperature 55 °F 59 °F  
Max Temperature 62 °F 69 °F 87 °F (2001)
Min Temperature 47 °F 49 °F 37 °F (1997)
Degree Days  
Heating Degree Days 10    
Month to date heating degree days 75  
Since 1 July heating degree days 9963  
Cooling Degree Days 0    
Month to date cooling degree days 4  
Year to date cooling degree days 6  
Growing Degree Days 6 (Base 50)    
Moisture  
Dew Point 48 °F    
Average Humidity 79    
Maximum Humidity 96    
Minimum Humidity 57    
Precipitation  
Precipitation 0.00 in 0.12 in 0.67 in (1998)
Month to date precipitation 1.80 1.68  
Year to date precipitation 12.17 11.58  
Sea Level Pressure  
Sea Level Pressure 29.93 in    
Wind  
Wind Speed 17 mph (NNW)    
Max Wind Speed 33 mph    
Max Gust Speed 43 mph    
Visibility 10 miles    
Events      
T = Trace of Precipitation, MM = Missing Value Source: NWS Daily Summary

Daily Weather History Graph

Daily Weather History Graph

Search for Another Location

Airport or City:

Trip Planner

Search our weather history database for the weather conditions in past years. The results will help you decide how hot, cold, wet, or windy it might be!

Date:

Astronomy

Jun. 15, 2014 Rise Set
Actual Time 4:36 AM EDT 8:31 PM EDT
Civil Twilight 3:56 AM EDT 9:11 PM EDT
Nautical Twilight 3:00 AM EDT 10:06 PM EDT
Astronomical Twilight 1:36 AM EDT 11:31 PM EDT
Moon 10:26 PM EDT (6/15) 7:35 AM EDT (6/15)
Length of Visible Light 17h 15m
Length of Day
15h 55m
Waning Gibbous, 91% of the Moon is Illuminated
Jun 15
Waning Gibbous
Jun 19
Last Quarter
Jun 27
New
Jul 5
First Quarter
Jul 12
Full

Hourly Weather History & Observations

Time (EDT) Temp. Dew Point Humidity Pressure Visibility Wind Dir Wind Speed Gust Speed Precip Events Conditions
12:12 AM 53.1 °F 52.0 °F 96% 29.83 in 10.0 mi NW 9.2 mph - N/A   Overcast
12:53 AM 53.1 °F 52.0 °F 96% 29.84 in 10.0 mi NNW 9.2 mph - N/A   Overcast
1:53 AM 53.1 °F 51.1 °F 93% 29.83 in 10.0 mi NNW 12.7 mph - N/A   Overcast
2:53 AM 52.0 °F 50.0 °F 93% 29.84 in 10.0 mi NNW 17.3 mph 25.3 mph N/A   Overcast
3:53 AM 52.0 °F 50.0 °F 93% 29.85 in 10.0 mi NNW 17.3 mph - N/A   Overcast
4:53 AM 52.0 °F 50.0 °F 93% 29.85 in 10.0 mi North 10.4 mph 19.6 mph N/A   Overcast
5:53 AM 52.0 °F 50.0 °F 93% 29.87 in 10.0 mi NNW 12.7 mph - N/A   Overcast
6:53 AM 53.1 °F 50.0 °F 89% 29.88 in 10.0 mi NNW 13.8 mph - N/A   Overcast
7:04 AM 53.1 °F 50.0 °F 89% 29.88 in 10.0 mi NNW 13.8 mph 23.0 mph N/A   Overcast
7:53 AM 53.1 °F 50.0 °F 89% 29.90 in 10.0 mi NNW 17.3 mph 24.2 mph N/A   Overcast
8:53 AM 55.0 °F 48.9 °F 80% 29.91 in 10.0 mi NNW 20.7 mph 29.9 mph N/A   Overcast
9:02 AM 54.0 °F 48.0 °F 80% 29.91 in 10.0 mi NNW 18.4 mph 31.1 mph N/A   Overcast
9:39 AM 53.1 °F 48.0 °F 83% 29.92 in 10.0 mi NNW 20.7 mph 27.6 mph N/A   Overcast
9:53 AM 53.1 °F 46.9 °F 80% 29.93 in 10.0 mi North 20.7 mph 31.1 mph N/A   Overcast
10:04 AM 54.0 °F 48.0 °F 80% 29.92 in 10.0 mi North 15.0 mph 28.8 mph N/A   Overcast
10:53 AM 55.9 °F 48.0 °F 75% 29.93 in 10.0 mi North 17.3 mph 32.2 mph N/A   Overcast
11:53 AM 57.9 °F 50.0 °F 75% 29.93 in 10.0 mi NNW 24.2 mph 34.5 mph N/A   Overcast
12:53 PM 57.0 °F 50.0 °F 77% 29.94 in 10.0 mi NNW 20.7 mph 31.1 mph N/A   Overcast
1:53 PM 57.0 °F 48.9 °F 74% 29.94 in 10.0 mi North 21.9 mph 34.5 mph N/A   Overcast
2:33 PM 57.0 °F 48.9 °F 74% 29.95 in 10.0 mi NNW 19.6 mph 35.7 mph N/A   Overcast
2:53 PM 57.0 °F 48.9 °F 74% 29.96 in 10.0 mi North 21.9 mph 33.4 mph N/A   Overcast
3:53 PM 57.0 °F 48.0 °F 72% 29.96 in 10.0 mi North 28.8 mph 41.4 mph N/A   Overcast
4:08 PM 57.9 °F 48.0 °F 70% 29.96 in 10.0 mi NNW 29.9 mph 42.6 mph N/A   Overcast
4:34 PM 59.0 °F 46.9 °F 64% 29.96 in 10.0 mi North 27.6 mph 35.7 mph N/A   Scattered Clouds
4:53 PM 59.0 °F 48.0 °F 67% 29.97 in 10.0 mi NNW 23.0 mph 32.2 mph N/A   Scattered Clouds
5:53 PM 61.0 °F 46.0 °F 58% 29.97 in 10.0 mi North 20.7 mph 28.8 mph N/A   Scattered Clouds
6:53 PM 60.1 °F 45.0 °F 57% 29.98 in 10.0 mi NNW 18.4 mph 26.5 mph N/A   Clear
7:53 PM 57.9 °F 44.1 °F 60% 30.00 in 10.0 mi North 15.0 mph 20.7 mph N/A   Clear
8:53 PM 55.0 °F 45.0 °F 69% 30.00 in 10.0 mi North 11.5 mph - N/A   Clear
9:53 PM 54.0 °F 44.1 °F 69% 30.01 in 10.0 mi North 10.4 mph - N/A   Clear
10:53 PM 51.1 °F 45.0 °F 80% 30.01 in 10.0 mi North 10.4 mph - N/A   Clear
11:53 PM 50.0 °F 44.1 °F 80% 30.03 in 10.0 mi NNW 8.1 mph - N/A   Clear